User: anonymous   Login
Location: L�Adrech
(44.2500°N, 6.4167°E)
Time: 11:11:56
(UTC+00:00)
Language:

Cosmos 1455 - Orbit

View from above orbital plane
View from above orbital plane
View from above satellite
View from above satellite

Ground track
Ground track

The orbit data is extracted from the following two-line orbital elements,

1 14032U 83037A   21162.88666994  .00000690  00000-0  31471-4 0  9994
2 14032  82.5162  87.8632 0015080 255.1023 104.8541 15.18845387 82207
Epoch (UTC): 11 June 2021 21:16:48
Eccentricity: 0.0015080
inclination: 82.5162°
perigee height: 499 km
apogee height: 520 km
right ascension of ascending node: 87.8632°
argument of perigee: 255.1023°
revolutions per day: 15.18845387
mean anomaly at epoch: 104.8541°
orbit number at epoch: 8220

The dashed part of the orbit path shows where the satellite is in the earth's shadow,  

DLR